• In Russia
  • List of Countries
  • For 7 days
  • Water Temperature
  • Satellite Maps
  • Weather Map
  • Weather Widgets
  • user-avatar
    Login

    Hourly Weather Salzburg

    Today, 25 February, Saturday

    Time Temperature Precipitation Wind Pressure Humidity
    00:00 -8°C° 0.1 mm 2 mps 622 mmHg 97%
    01:00 -9°C° 0.1 mm 2 mps 622 mmHg 97%
    02:00 -9°C° 0.1 mm 2 mps 623 mmHg 97%
    03:00 -10°C° 0.1 mm 2 mps 623 mmHg 97%
    04:00 -10°C° 0.1 mm 2 mps 623 mmHg 97%
    05:00 -12°C° 0 mm 2 mps 623 mmHg 96%
    06:00 -13°C° 0 mm 2 mps 623 mmHg 95%
    07:00 -13°C° 0 mm 2 mps 623 mmHg 94%
    08:00 -9°C° 0 mm 1 mps 624 mmHg 91%
    09:00 -7°C° 0 mm 1 mps 625 mmHg 88%
    10:00 -4°C° 0 mm 1 mps 626 mmHg 85%
    11:00 -3°C° 0 mm 1 mps 626 mmHg 83%
    12:00 -2°C° 0 mm 1 mps 626 mmHg 80%
    13:00 -1°C° 0 mm 1 mps 627 mmHg 78%
    14:00 -1°C° 0 mm 1 mps 626 mmHg 80%
    15:00 -1°C° 0 mm 1 mps 626 mmHg 83%
    16:00 -1°C° 0 mm 1 mps 626 mmHg 86%
    17:00 -4°C° 0 mm 1 mps 625 mmHg 88%
    18:00 -7°C° 0 mm 1 mps 624 mmHg 90%
    19:00 -10°C° 0 mm 1 mps 623 mmHg 92%
    20:00 -9°C° 0 mm 1 mps 623 mmHg 91%
    21:00 -10°C° 0 mm 2 mps 623 mmHg 89%
    22:00 -10°C° 0 mm 2 mps 623 mmHg 88%
    23:00 -10°C° 0 mm 2 mps 623 mmHg 87%

    Tomorrow, 26 February, Sunday

    Time Temperature Precipitation Wind Pressure Humidity
    00:00 -9°C° 0 mm 2 mps 623 mmHg 85%
    01:00 -9°C° 0 mm 2 mps 623 mmHg 84%
    02:00 -9°C° 0 mm 2 mps 623 mmHg 83%
    03:00 -9°C° 0 mm 2 mps 623 mmHg 82%
    04:00 -9°C° 0 mm 2 mps 622 mmHg 81%
    05:00 -8°C° 0 mm 2 mps 622 mmHg 80%
    06:00 -8°C° 0 mm 2 mps 622 mmHg 79%
    07:00 -8°C° 0 mm 2 mps 622 mmHg 79%
    08:00 -4°C° 0 mm 1 mps 623 mmHg 81%
    09:00 -1°C° 0 mm 1 mps 624 mmHg 84%
    10:00 +1°C° 0 mm 1 mps 625 mmHg 87%
    11:00 +2°C° 0 mm 1 mps 625 mmHg 86%
    12:00 +2°C° 0 mm 1 mps 625 mmHg 86%
    13:00 +3°C° 0 mm 1 mps 625 mmHg 86%
    14:00 +2°C° 0 mm 1 mps 624 mmHg 88%
    15:00 +2°C° 0 mm 1 mps 624 mmHg 90%
    16:00 +2°C° 0 mm 1 mps 624 mmHg 92%
    17:00 +1°C° 0 mm 1 mps 623 mmHg 88%
    18:00 -1°C° 0 mm 1 mps 623 mmHg 85%
    19:00 -2°C° 0 mm 1 mps 622 mmHg 81%
    20:00 -2°C° 0 mm 1 mps 622 mmHg 80%
    21:00 -3°C° 0 mm 1 mps 622 mmHg 79%
    22:00 -3°C° 0 mm 1 mps 622 mmHg 78%
    23:00 -4°C° 0 mm 1 mps 621 mmHg 78%

    Day after tomorrow, 27 February, Monday

    Time Temperature Precipitation Wind Pressure Humidity
    00:00 -6°C° 0 mm 1 mps 621 mmHg 79%
    01:00 -6°C° 0 mm 1 mps 620 mmHg 79%
    02:00 -6°C° 0 mm 1 mps 620 mmHg 80%
    03:00 -4°C° 0 mm 1 mps 620 mmHg 82%
    04:00 -6°C° 0 mm 2 mps 621 mmHg 84%
    05:00 -6°C° 0 mm 2 mps 620 mmHg 85%
    06:00 -6°C° 0 mm 2 mps 620 mmHg 86%
    07:00 -6°C° 0 mm 2 mps 620 mmHg 87%
    08:00 -4°C° 0 mm 2 mps 620 mmHg 86%
    09:00 -2°C° 0 mm 2 mps 621 mmHg 86%
    10:00 -1°C° 0 mm 2 mps 621 mmHg 86%
    11:00 +1°C° 0 mm 2 mps 621 mmHg 85%
    12:00 +3°C° 0 mm 1 mps 620 mmHg 85%
    13:00 +4°C° 0 mm 1 mps 620 mmHg 85%
    14:00 +3°C° 0 mm 1 mps 620 mmHg 86%
    15:00 +3°C° 0 mm 1 mps 619 mmHg 88%
    16:00 +3°C° 0 mm 1 mps 619 mmHg 90%
    17:00 +1°C° 0 mm 1 mps 618 mmHg 91%
    18:00 -2°C° 0 mm 2 mps 618 mmHg 92%
    19:00 -4°C° 0 mm 2 mps 617 mmHg 94%
    20:00 -4°C° 0 mm 2 mps 617 mmHg 93%
    21:00 -4°C° 0 mm 2 mps 617 mmHg 93%
    22:00 -5°C° 0 mm 2 mps 617 mmHg 93%
    23:00 -6°C° 0 mm 3 mps 617 mmHg 92%

    28 February, Tuesday

    Time Temperature Precipitation Wind Pressure Humidity
    00:00 -6°C° 0 mm 3 mps 617 mmHg 92%
    01:00 -6°C° 0 mm 3 mps 616 mmHg 92%
    02:00 -5°C° 0 mm 2 mps 616 mmHg 92%
    03:00 -6°C° 0 mm 2 mps 616 mmHg 92%
    04:00 -6°C° 0 mm 2 mps 615 mmHg 92%
    05:00 -6°C° 0 mm 2 mps 615 mmHg 92%
    06:00 -6°C° 0 mm 2 mps 615 mmHg 91%
    07:00 -6°C° 0 mm 2 mps 615 mmHg 91%
    08:00 -4°C° 0 mm 2 mps 615 mmHg 90%
    09:00 -3°C° 0 mm 2 mps 615 mmHg 89%
    10:00 -1°C° 0 mm 2 mps 616 mmHg 88%
    11:00 0°C° 0 mm 3 mps 615 mmHg 87%
    12:00 +1°C° 0 mm 3 mps 615 mmHg 87%
    13:00 +2°C° 0 mm 3 mps 614 mmHg 86%
    14:00 +1°C° 0.1 mm 3 mps 613 mmHg 87%
    15:00 +1°C° 0.1 mm 3 mps 612 mmHg 88%
    16:00 +1°C° 0.1 mm 3 mps 612 mmHg 88%
    17:00 -1°C° 1.6 mm 3 mps 612 mmHg 91%
    18:00 -3°C° 1.6 mm 4 mps 612 mmHg 93%
    19:00 -5°C° 1.6 mm 4 mps 613 mmHg 95%
    20:00 -7°C° 1.5 mm 4 mps 613 mmHg 95%
    21:00 -6°C° 1.5 mm 3 mps 613 mmHg 96%
    22:00 -7°C° 1.5 mm 3 mps 614 mmHg 96%
    23:00 -7°C° 0.8 mm 3 mps 614 mmHg 96%

    1 March, Wednesday

    Time Temperature Precipitation Wind Pressure Humidity
    00:00 -7°C° 0.8 mm 3 mps 615 mmHg 96%
    01:00 -7°C° 0.8 mm 3 mps 615 mmHg 96%
    02:00 -8°C° 0.1 mm 3 mps 615 mmHg 95%
    03:00 -8°C° 0.1 mm 3 mps 616 mmHg 94%
    04:00 -9°C° 0.1 mm 3 mps 616 mmHg 94%
    05:00 -9°C° 0.1 mm 3 mps 616 mmHg 93%
    06:00 -10°C° 0.1 mm 3 mps 616 mmHg 92%
    07:00 -12°C° 0.1 mm 3 mps 616 mmHg 91%
    08:00 -9°C° 0.2 mm 3 mps 617 mmHg 90%
    09:00 -7°C° 0.2 mm 3 mps 619 mmHg 89%
    10:00 -5°C° 0.2 mm 3 mps 620 mmHg 88%
    11:00 -4°C° 0 mm 3 mps 620 mmHg 88%
    12:00 -2°C° 0 mm 3 mps 621 mmHg 87%
    13:00 -1°C° 0 mm 3 mps 621 mmHg 87%
    14:00 -1°C° 0.1 mm 3 mps 621 mmHg 89%
    15:00 -1°C° 0.1 mm 2 mps 621 mmHg 90%
    16:00 +1°C° 0.1 mm 1 mps 621 mmHg 92%
    17:00 0°C° 0.3 mm 1 mps 621 mmHg 92%
    18:00 -3°C° 0.3 mm 2 mps 621 mmHg 92%
    19:00 -4°C° 0.3 mm 2 mps 620 mmHg 93%
    20:00 -4°C° 0.2 mm 2 mps 620 mmHg 92%
    21:00 -4°C° 0.2 mm 2 mps 620 mmHg 92%
    22:00 -5°C° 0.2 mm 3 mps 620 mmHg 92%
    23:00 -5°C° 0.4 mm 3 mps 620 mmHg 92%

    2 March, Thursday

    Time Temperature Precipitation Wind Pressure Humidity
    00:00 -4°C° 0.4 mm 2 mps 620 mmHg 91%
    01:00 -4°C° 0.4 mm 2 mps 620 mmHg 91%
    02:00 -4°C° 0.8 mm 2 mps 620 mmHg 92%
    03:00 -4°C° 0.8 mm 2 mps 620 mmHg 93%
    04:00 -3°C° 0.8 mm 2 mps 621 mmHg 94%
    05:00 -3°C° 0.7 mm 2 mps 622 mmHg 95%
    06:00 -3°C° 0.7 mm 2 mps 622 mmHg 96%
    07:00 -3°C° 0.7 mm 2 mps 623 mmHg 97%
    08:00 -3°C° 0.1 mm 2 mps 623 mmHg 96%
    09:00 -2°C° 0.1 mm 3 mps 624 mmHg 95%
    10:00 -2°C° 0.1 mm 3 mps 625 mmHg 94%
    11:00 -1°C° 0 mm 3 mps 625 mmHg 91%
    12:00 +1°C° 0 mm 2 mps 625 mmHg 88%
    13:00 +1°C° 0 mm 2 mps 625 mmHg 85%
    14:00 +1°C° 0 mm 2 mps 625 mmHg 85%
    15:00 +2°C° 0 mm 1 mps 625 mmHg 86%
    16:00 +1°C° 0 mm 0 mps 625 mmHg 87%
    17:00 0°C° 0 mm 1 mps 624 mmHg 87%
    18:00 -2°C° 0 mm 1 mps 624 mmHg 87%
    19:00 -6°C° 0 mm 2 mps 623 mmHg 87%
    20:00 -6°C° 0 mm 2 mps 623 mmHg 88%
    21:00 -5°C° 0 mm 2 mps 623 mmHg 89%
    22:00 -5°C° 0 mm 2 mps 623 mmHg 90%
    23:00 -5°C° 0 mm 2 mps 623 mmHg 90%
    Show more